Location: Napier
(39.4830°S, 176.9170°E)
Time: 01:54:14
(UTC+12:00)

CZ-4C R/B - Pass Details

Date: 15 August 2020
Orbit: 629 x 1373 km, 63.4° (Epoch: 19 September)

Event Time Altitude Azimuth Distance (km) Brightness Sun altitude
Rises 19:15:57 0° 320° (NW) 4,376 6.5 -20.1°
Reaches altitude 10° 19:18:58 10° 317° (NW) 3,367 5.9 -20.7°
Maximum altitude 19:27:13 68° 234° (SW) 1,310 3.2 -22.3°
Enters shadow 19:33:45 13° 152° (SSE) 2,733 4.6 -23.5°
